Search your local weather  

 

Hazardous Weather Conditions

No active alerts for CHICAGO, ILLINOIS

Current Conditions: CHICAGO, ILLINOIS

Overcast


34.0 F

Last Updated on Jan 26 2020, 5:52 am CST
Humidity: 82%
Wind Speed: W 5.8 mph
Barometer 29.90 in
Dewpoint: 28.9 F
Visibility: 10.00 mi
Precip: --
Heat Index: NA
Wind Chill: 29 F
Current conditions at:

Chicago / Wheeling, Pal-Waukee Airport, IL (KPWK)

Lat: 42.12083 Lon: -87.90472

Local Radar Image active severe weather and emergency alerts image image weather storm and storm spotter reports image weather observation monitoring service image
Local
Radar
Active
Alerts
Storm Reports Weather
Monitoring

5 Day Forecast for CHICAGO, ILLINOIS (60601)

Sunday

Overcast

High 35 °F
Sunday
Night
Overcast

Low 28 °F
Monday

Overcast

High 36 °F
Monday
Night
Slight Chance of Rain/Snow Mix
Low 29 °F
Tuesday

Overcast

High 35 °F
Tuesday
Night
Slight Chance of Snow
Low 30 °F
Wednesday

Overcast

High 37 °F
Wednesday
Night
Mostly Cloudy

Low 30 °F
Thursday

Mostly Cloudy

High 37 °F

Sign-up For Email & Text Message Weather Alert Notification Services



Advertise Here

Observation History for CHICAGO, ILLINOIS


Time Wind
(mph)
Vis
(mi)
Weather Precip (in) Temperature (F) Relative
Humidity
Wind
Chill
(F)
Heat
Index
(F)
Pressure
Air Dwpt altimeter
(in)
sea level
(mb)
5:52 am CST W 5.8 10.00 Overcast -- 34.0 28.9 82% 29 NA 29.90 1013.2
4:52 am CST W 5.8 10.00 Overcast -- 34.0 28.9 82% 29 NA 29.91 1013.4
3:52 am CST W 6.9 10.00 Overcast -- 34.0 28.9 82% 28 NA 29.92 1013.7
2:52 am CST W 9.2 10.00 Overcast -- 34.0 28.9 82% 27 NA 29.91 1013.5
1:52 am CST W 9.2 10.00 Overcast -- 35.0 28.9 78% 28 NA 29.91 1013.2
12:52 am CST W 8.1 9.00 Overcast -- 35.0 30.0 82% 28 NA 29.91 1013.3
11:52 pm CST W 8.1 10.00 Overcast -- 35.0 30.0 82% 28 NA 29.90 1013.1
10:52 pm CST W 6.9 10.00 Overcast -- 35.0 30.0 82% 29 NA 29.90 1013.1
9:52 pm CST W 8.1 10.00 Overcast -- 35.0 30.0 82% 28 NA 29.88 1012.5
8:52 pm CST W 8.1 9.00 Overcast -- 35.0 30.9 85% 28 NA 29.89 1012.6
7:52 pm CST W 5.8 10.00 Overcast -- 35.0 30.9 85% 30 NA 29.88 1012.4
6:52 pm CST W 9.2 8.00 Overcast -- 35.0 30.0 82% 28 NA 29.87 1012.2
5:52 pm CST W 6.9 9.00 Overcast -- 35.0 30.0 82% 29 NA 29.86 1011.6
4:52 pm CST W 6.9 8.00 Overcast -- 35.0 30.9 85% 29 NA 29.85 1011.4
3:52 pm CST W 10.4 10.00 Overcast Trace 36.0 30.9 82% 28 NA 29.84 1011.0
2:52 pm CST W 5.8 4.00 Light Snow Fog/Mist -- 35.0 30.9 85% 30 NA 29.82 1010.5
1:52 pm CST W 10.4 4.00 Light Snow 00.01 36.0 30.9 82% 28 NA 29.81 1010.1
12:52 pm CST W 8.1 10.00 Overcast -- 36.0 30.9 82% 30 NA 29.82 1010.4
11:52 am CST W 8.1 8.00 Unknown Precip 00.04 36.0 32.0 86% 30 NA 29.82 1010.4
10:52 am CST W 6.9 4.00 Light Snow Fog/Mist 00.05 35.0 32.0 89% 29 NA 29.83 1010.7
9:52 am CST W 5.8 2.00 Light Snow Fog/Mist 00.04 35.0 30.9 85% 30 NA 29.82 1010.5
8:52 am CST W 4.6 1.50 Light Snow Fog/Mist 00.02 34.0 30.9 89% 30 NA 29.81 1010.2
7:52 am CST W 4.6 10.00 Overcast -- 35.0 30.9 85% 31 NA 29.81 1009.9
6:52 am CST W 5.8 10.00 Overcast -- 34.0 30.9 89% 29 NA 29.79 1009.3

Regional Weather Observation

Chicago, Chicago-OHare International Airport, IL (KORD)

Overcast
31.0 F

Chicago/Waukegan Regional Airport, IL (KUGN)

Overcast
33.0 F

Chicago, Chicago Midway Airport, IL (KMDW)

Overcast
32.0 F

Kenosha, Kenosha Regional Airport, WI (KENW)

Overcast
35.0 F

Chicago / West Chicago, Dupage Airport, IL (KDPA)

Overcast
31.0 F

Racine, Batten International Airport, WI (KRAC)

Overcast
34.0 F

Advertise Here


Advertise Here